カタログに戻る

STARLINK-30072

運用中通信VLEO
NORAD 57501·PAYLOAD·🇺🇸 United States

打ち上げ Aug 7, 2023 から Cape Canaveral Space Force Station

Loading…

次のパス (今後24時間)

TLE

最新Source: CelesTrak SupGP

元期: Sep 14, 2026, 22:06 UTC

1 57501C 23113G   26257.92131944  .00023484  00000+0  85050-3 0  2571
2 57501  43.0026  27.6621 0001500 272.3416  42.3748 15.27569815    18

AllMySatでSTARLINK-30072をリアルタイム追跡

Download on the App Store